Time,TemperatureF,DewpointF,PressureIn,WindDirection,WindDirectionDegrees,WindSpeedMPH,WindSpeedGustMPH,Humidity,HourlyPrecipIn,Conditions,Clouds,dailyrainin,SoftwareType,DateUTC
2013-06-02 00:00:00,76.6,73.8,30.04,SE,142,0.0,0.0,91,0.00,,,0.00,VWS V14.01,2013-06-02 04:00:00,
2013-06-02 00:01:00,76.7,73.9,30.04,SE,142,0.0,0.0,91,0.00,,,0.08,VWS V14.01,2013-06-02 04:01:00,
2013-06-02 00:05:00,76.7,73.9,30.04,SE,142,0.0,0.0,91,0.00,,,0.00,VWS V14.01,2013-06-02 04:05:00,
2013-06-02 00:06:00,76.6,73.8,30.04,SE,142,0.0,0.0,91,0.00,,,0.00,VWS V14.01,2013-06-02 04:06:00,
2013-06-02 00:10:00,76.7,73.9,30.04,SE,142,0.0,0.0,91,0.00,,,0.00,VWS V14.01,2013-06-02 04:10:00,
2013-06-02 00:11:00,76.7,73.9,30.04,SE,142,0.0,0.0,91,0.00,,,0.00,VWS V14.01,2013-06-02 04:11:00,
2013-06-02 00:15:00,76.6,73.8,30.04,SE,142,0.0,0.0,91,0.00,,,0.00,VWS V14.01,2013-06-02 04:15:00,
2013-06-02 00:16:00,76.6,73.8,30.04,SE,142,0.0,0.0,91,0.00,,,0.00,VWS V14.01,2013-06-02 04:16:00,
2013-06-02 00:20:00,76.7,73.9,30.04,SE,142,0.0,0.0,91,0.00,,,0.00,VWS V14.01,2013-06-02 04:20:00,
2013-06-02 00:21:00,76.6,73.8,30.04,SE,142,0.0,0.0,91,0.00,,,0.00,VWS V14.01,2013-06-02 04:21:00,
2013-06-02 00:25:00,76.7,73.9,30.04,SE,142,0.0,0.0,91,0.00,,,0.00,VWS V14.01,2013-06-02 04:25:00,
2013-06-02 00:26:00,76.7,73.9,30.04,SE,142,0.0,0.0,91,0.00,,,0.00,VWS V14.01,2013-06-02 04:26:00,
2013-06-02 00:30:00,76.7,73.9,30.03,SE,142,0.0,0.0,91,0.00,,,0.00,VWS V14.01,2013-06-02 04:30:00,
2013-06-02 00:31:00,76.6,73.8,30.03,SE,142,0.0,0.0,91,0.00,,,0.00,VWS V14.01,2013-06-02 04:31:00,
2013-06-02 00:35:00,76.6,73.8,30.03,SE,142,0.0,0.0,91,0.00,,,0.00,VWS V14.01,2013-06-02 04:35:00,
2013-06-02 00:36:00,76.7,73.9,30.03,SE,142,0.0,0.0,91,0.00,,,0.00,VWS V14.01,2013-06-02 04:36:00,
2013-06-02 00:48:00,76.5,73.8,30.02,SE,142,0.0,0.0,91,0.00,,,0.00,VWS V14.01,2013-06-02 04:48:00,
2013-06-02 00:50:00,76.5,73.8,30.02,SE,142,0.0,0.0,91,0.00,,,0.00,VWS V14.01,2013-06-02 04:50:00,
2013-06-02 00:53:00,76.4,73.7,30.02,SE,142,0.0,0.0,91,0.00,,,0.00,VWS V14.01,2013-06-02 04:53:00,
2013-06-02 00:55:00,76.5,73.8,30.02,SE,142,0.0,0.0,91,0.00,,,0.00,VWS V14.01,2013-06-02 04:55:00,
2013-06-02 00:58:00,76.4,73.7,30.02,SE,142,0.0,0.0,91,0.00,,,0.00,VWS V14.01,2013-06-02 04:58:00,
2013-06-02 01:00:00,76.4,73.7,30.02,SE,142,0.0,0.0,91,0.00,,,0.00,VWS V14.01,2013-06-02 05:00:00,
2013-06-02 01:03:00,76.4,73.7,30.02,SE,142,0.0,0.0,91,0.00,,,0.00,VWS V14.01,2013-06-02 05:03:00,
2013-06-02 01:05:00,76.3,73.6,30.02,SE,142,0.0,0.0,91,0.00,,,0.00,VWS V14.01,2013-06-02 05:05:00,
2013-06-02 01:08:00,76.3,73.6,30.02,SE,142,0.0,0.0,91,0.00,,,0.00,VWS V14.01,2013-06-02 05:08:00,
2013-06-02 01:10:00,76.4,73.7,30.02,SE,142,0.0,0.0,91,0.00,,,0.00,VWS V14.01,2013-06-02 05:10:00,
2013-06-02 01:13:00,76.3,73.7,30.02,SE,142,0.0,0.0,92,0.00,,,0.00,VWS V14.01,2013-06-02 05:13:00,
2013-06-02 01:15:00,76.3,73.7,30.02,SE,142,0.0,0.0,92,0.00,,,0.00,VWS V14.01,2013-06-02 05:15:00,
2013-06-02 01:18:00,76.3,73.7,30.02,SE,142,0.0,0.0,92,0.00,,,0.00,VWS V14.01,2013-06-02 05:18:00,
2013-06-02 01:20:00,76.3,73.7,30.02,SE,142,0.0,0.0,92,0.00,,,0.00,VWS V14.01,2013-06-02 05:20:00,
2013-06-02 01:23:00,76.2,73.6,30.02,SE,142,0.0,0.0,92,0.00,,,0.00,VWS V14.01,2013-06-02 05:23:00,
2013-06-02 01:25:00,76.2,73.6,30.02,SE,142,0.0,0.0,92,0.00,,,0.00,VWS V14.01,2013-06-02 05:25:00,
2013-06-02 01:28:00,76.3,73.7,30.02,SE,142,0.0,0.0,92,0.00,,,0.00,VWS V14.01,2013-06-02 05:28:00,
2013-06-02 01:30:00,76.2,73.6,30.02,SE,142,0.0,0.0,92,0.00,,,0.00,VWS V14.01,2013-06-02 05:30:00,
2013-06-02 01:33:00,76.3,73.7,30.02,SE,142,0.0,0.0,92,0.00,,,0.00,VWS V14.01,2013-06-02 05:33:00,
2013-06-02 01:35:00,76.2,73.6,30.02,SE,142,0.0,0.0,92,0.00,,,0.00,VWS V14.01,2013-06-02 05:35:00,
2013-06-02 01:38:00,76.2,73.6,30.02,SE,142,0.0,0.0,92,0.00,,,0.00,VWS V14.01,2013-06-02 05:38:00,
2013-06-02 01:40:00,76.2,73.6,30.02,SE,142,0.0,0.0,92,0.00,,,0.00,VWS V14.01,2013-06-02 05:40:00,
2013-06-02 01:43:00,76.2,73.6,30.02,SE,142,0.0,0.0,92,0.00,,,0.00,VWS V14.01,2013-06-02 05:43:00,
2013-06-02 01:45:00,76.2,73.5,30.01,SE,142,0.0,0.0,91,0.00,,,0.00,VWS V14.01,2013-06-02 05:45:00,
2013-06-02 01:48:00,76.2,73.6,30.01,SE,142,0.0,0.0,92,0.00,,,0.00,VWS V14.01,2013-06-02 05:48:00,
2013-06-02 01:50:00,76.2,73.6,30.01,SE,142,0.0,0.0,92,0.00,,,0.00,VWS V14.01,2013-06-02 05:50:00,
2013-06-02 01:53:00,76.2,73.5,30.01,SE,142,0.0,0.0,91,0.00,,,0.00,VWS V14.01,2013-06-02 05:53:00,
2013-06-02 01:55:00,76.2,73.6,30.01,SE,142,0.0,0.0,92,0.00,,,0.00,VWS V14.01,2013-06-02 05:55:00,
2013-06-02 01:58:00,76.3,73.7,30.01,SE,142,0.0,0.0,92,0.00,,,0.00,VWS V14.01,2013-06-02 05:58:00,
2013-06-02 02:00:00,76.1,73.4,30.01,SE,142,0.0,0.0,92,0.00,,,0.00,VWS V14.01,2013-06-02 06:00:00,
2013-06-02 02:03:00,76.2,73.6,30.01,SE,142,0.0,0.0,92,0.00,,,0.00,VWS V14.01,2013-06-02 06:03:00,
2013-06-02 02:05:00,76.2,73.5,30.01,SE,142,0.0,0.0,91,0.00,,,0.00,VWS V14.01,2013-06-02 06:05:00,
2013-06-02 02:08:00,76.2,73.5,30.01,SE,142,0.0,0.0,91,0.00,,,0.00,VWS V14.01,2013-06-02 06:08:00,
2013-06-02 02:10:00,76.1,73.4,30.01,SE,142,0.0,0.0,91,0.00,,,0.00,VWS V14.01,2013-06-02 06:10:00,
2013-06-02 02:13:00,76.1,73.4,30.01,SE,142,0.0,0.0,91,0.00,,,0.00,VWS V14.01,2013-06-02 06:13:00,
2013-06-02 02:15:00,76.1,73.4,30.01,SE,142,0.0,0.0,91,0.00,,,0.00,VWS V14.01,2013-06-02 06:15:00,
2013-06-02 02:18:00,76.0,73.3,30.01,SE,142,0.0,0.0,91,0.00,,,0.00,VWS V14.01,2013-06-02 06:18:00,
2013-06-02 02:20:00,76.0,73.3,30.00,SE,142,0.0,0.0,91,0.00,,,0.00,VWS V14.01,2013-06-02 06:20:00,
2013-06-02 02:23:00,76.0,73.3,30.01,SE,142,0.0,0.0,91,0.00,,,0.00,VWS V14.01,2013-06-02 06:23:00,
2013-06-02 02:25:00,76.0,73.3,30.01,SE,142,0.0,0.0,92,0.00,,,0.00,VWS V14.01,2013-06-02 06:25:00,
2013-06-02 02:28:00,75.9,73.2,30.01,SE,142,0.0,0.0,92,0.00,,,0.00,VWS V14.01,2013-06-02 06:28:00,
2013-06-02 02:30:00,75.9,73.2,30.00,SE,142,0.0,0.0,92,0.00,,,0.00,VWS V14.01,2013-06-02 06:30:00,
2013-06-02 02:33:00,75.8,73.2,30.00,SE,142,0.0,0.0,92,0.00,,,0.00,VWS V14.01,2013-06-02 06:33:00,
2013-06-02 02:35:00,75.9,73.2,30.00,SE,142,0.0,0.0,92,0.00,,,0.00,VWS V14.01,2013-06-02 06:35:00,
2013-06-02 02:38:00,75.9,73.2,30.00,SE,142,0.0,0.0,92,0.00,,,0.00,VWS V14.01,2013-06-02 06:38:00,
2013-06-02 02:40:00,75.9,73.2,30.00,SE,142,0.0,0.0,92,0.00,,,0.00,VWS V14.01,2013-06-02 06:40:00,
2013-06-02 02:43:00,75.8,73.2,30.00,SE,142,0.0,0.0,92,0.00,,,0.00,VWS V14.01,2013-06-02 06:43:00,
2013-06-02 02:45:00,75.8,73.2,30.00,SE,142,0.0,0.0,92,0.00,,,0.00,VWS V14.01,2013-06-02 06:45:00,
2013-06-02 02:48:00,75.8,73.2,30.00,SE,142,0.0,0.0,92,0.00,,,0.00,VWS V14.01,2013-06-02 06:48:00,
2013-06-02 02:50:00,75.8,73.2,30.00,SE,142,0.0,0.0,92,0.00,,,0.00,VWS V14.01,2013-06-02 06:50:00,
2013-06-02 02:53:00,75.7,73.1,30.00,SE,142,0.0,0.0,92,0.00,,,0.00,VWS V14.01,2013-06-02 06:53:00,
2013-06-02 02:55:00,75.7,73.1,29.99,SE,142,0.0,0.0,92,0.00,,,0.00,VWS V14.01,2013-06-02 06:55:00,
2013-06-02 02:58:00,75.7,73.1,29.99,SE,142,0.0,0.0,92,0.00,,,0.00,VWS V14.01,2013-06-02 06:58:00,
2013-06-02 03:00:00,75.7,73.1,29.99,SE,142,0.0,0.0,92,0.00,,,0.00,VWS V14.01,2013-06-02 07:00:00,
2013-06-02 03:03:00,75.7,73.1,29.99,SE,142,0.0,0.0,92,0.00,,,0.00,VWS V14.01,2013-06-02 07:03:00,
2013-06-02 03:05:00,75.7,73.1,29.99,SE,142,0.0,0.0,92,0.00,,,0.00,VWS V14.01,2013-06-02 07:05:00,
2013-06-02 03:08:00,75.7,73.1,29.99,SE,142,0.0,0.0,92,0.00,,,0.00,VWS V14.01,2013-06-02 07:08:00,
2013-06-02 03:10:00,75.6,73.0,29.99,SE,142,0.0,0.0,92,0.00,,,0.00,VWS V14.01,2013-06-02 07:10:00,
2013-06-02 03:13:00,75.6,73.0,29.99,SE,142,0.0,0.0,92,0.00,,,0.00,VWS V14.01,2013-06-02 07:13:00,
2013-06-02 03:15:00,75.7,73.1,29.99,SE,142,0.0,0.0,92,0.00,,,0.00,VWS V14.01,2013-06-02 07:15:00,
2013-06-02 03:18:00,75.7,73.1,29.99,SE,142,0.0,0.0,92,0.00,,,0.00,VWS V14.01,2013-06-02 07:18:00,
2013-06-02 03:20:00,75.6,73.0,29.98,SE,142,0.0,0.0,92,0.00,,,0.00,VWS V14.01,2013-06-02 07:20:00,
2013-06-02 03:23:00,75.7,73.1,29.98,SE,142,0.0,0.0,92,0.00,,,0.00,VWS V14.01,2013-06-02 07:23:00,
2013-06-02 03:25:00,75.7,73.1,29.99,SE,142,0.0,0.0,92,0.00,,,0.00,VWS V14.01,2013-06-02 07:25:00,
2013-06-02 03:28:00,75.7,73.1,29.98,SE,142,0.0,0.0,92,0.00,,,0.00,VWS V14.01,2013-06-02 07:28:00,
2013-06-02 03:30:00,75.5,72.9,29.99,SE,142,0.0,0.0,92,0.00,,,0.00,VWS V14.01,2013-06-02 07:30:00,
2013-06-02 03:33:00,75.6,73.0,29.98,SE,142,0.0,0.0,92,0.00,,,0.00,VWS V14.01,2013-06-02 07:33:00,
2013-06-02 03:35:00,75.6,73.0,29.98,SE,142,0.0,0.0,92,0.00,,,0.00,VWS V14.01,2013-06-02 07:35:00,
2013-06-02 03:38:00,75.6,73.0,29.98,SE,142,0.0,0.0,92,0.00,,,0.00,VWS V14.01,2013-06-02 07:38:00,
2013-06-02 03:40:00,75.5,72.9,29.98,SE,142,0.0,0.0,92,0.00,,,0.00,VWS V14.01,2013-06-02 07:40:00,
2013-06-02 03:43:00,75.5,72.9,29.98,SE,142,0.0,0.0,92,0.00,,,0.00,VWS V14.01,2013-06-02 07:43:00,
2013-06-02 03:45:00,75.4,72.8,29.98,SE,142,0.0,0.0,92,0.00,,,0.00,VWS V14.01,2013-06-02 07:45:00,
2013-06-02 03:47:00,75.5,72.9,29.98,SE,142,0.0,0.0,92,0.00,,,0.00,VWS V14.01,2013-06-02 07:47:00,
2013-06-02 03:50:00,75.5,72.9,29.99,SE,142,0.0,0.0,92,0.00,,,0.00,VWS V14.01,2013-06-02 07:50:00,
2013-06-02 03:52:00,75.5,72.9,29.98,SE,142,0.0,0.0,92,0.00,,,0.00,VWS V14.01,2013-06-02 07:52:00,
2013-06-02 03:55:00,75.5,72.9,29.98,SE,142,0.0,0.0,92,0.00,,,0.00,VWS V14.01,2013-06-02 07:55:00,
2013-06-02 03:57:00,75.6,73.1,29.98,SE,142,0.0,0.0,92,0.00,,,0.00,VWS V14.01,2013-06-02 07:57:00,
2013-06-02 04:00:00,75.6,73.1,29.98,SE,142,0.0,0.0,92,0.00,,,0.00,VWS V14.01,2013-06-02 08:00:00,
2013-06-02 04:02:00,75.5,73.0,29.98,SE,142,0.0,0.0,92,0.00,,,0.00,VWS V14.01,2013-06-02 08:02:00,
2013-06-02 04:05:00,75.5,73.0,29.98,SE,142,0.0,0.0,92,0.00,,,0.00,VWS V14.01,2013-06-02 08:05:00,
2013-06-02 04:07:00,75.7,73.2,29.98,SE,142,0.0,0.0,92,0.00,,,0.00,VWS V14.01,2013-06-02 08:07:00,
2013-06-02 04:10:00,75.6,73.1,29.98,SE,142,0.0,0.0,92,0.00,,,0.00,VWS V14.01,2013-06-02 08:10:00,
2013-06-02 04:12:00,75.6,73.1,29.98,SE,142,0.0,0.0,92,0.00,,,0.00,VWS V14.01,2013-06-02 08:12:00,
2013-06-02 04:15:00,75.6,73.2,29.98,SE,142,0.0,0.0,92,0.00,,,0.00,VWS V14.01,2013-06-02 08:15:00,
2013-06-02 04:17:00,75.6,73.2,29.98,SE,142,0.0,0.0,92,0.00,,,0.00,VWS V14.01,2013-06-02 08:17:00,
2013-06-02 04:20:00,75.6,73.2,29.98,SE,142,0.0,0.0,92,0.00,,,0.00,VWS V14.01,2013-06-02 08:20:00,
2013-06-02 04:22:00,75.6,73.2,29.98,SE,142,0.0,0.0,92,0.00,,,0.00,VWS V14.01,2013-06-02 08:22:00,
2013-06-02 04:25:00,75.6,73.2,29.98,SE,142,0.0,0.0,92,0.00,,,0.00,VWS V14.01,2013-06-02 08:25:00,
2013-06-02 04:27:00,75.6,73.2,29.97,SE,142,0.0,0.0,92,0.00,,,0.00,VWS V14.01,2013-06-02 08:27:00,
2013-06-02 04:30:00,75.5,73.1,29.98,SE,142,0.0,0.0,92,0.00,,,0.00,VWS V14.01,2013-06-02 08:30:00,
2013-06-02 04:32:00,75.4,72.9,29.98,SE,142,0.0,0.0,92,0.00,,,0.00,VWS V14.01,2013-06-02 08:32:00,
2013-06-02 04:35:00,75.5,73.1,29.98,SE,142,0.0,0.0,92,0.00,,,0.00,VWS V14.01,2013-06-02 08:35:00,
2013-06-02 04:37:00,75.5,73.1,29.98,SE,142,0.0,0.0,92,0.00,,,0.00,VWS V14.01,2013-06-02 08:37:00,
2013-06-02 04:40:00,75.4,72.9,29.98,SE,142,0.0,0.0,92,0.00,,,0.00,VWS V14.01,2013-06-02 08:40:00,
2013-06-02 04:42:00,75.4,72.9,29.97,SE,142,0.0,0.0,92,0.00,,,0.00,VWS V14.01,2013-06-02 08:42:00,
2013-06-02 04:45:00,75.3,72.8,29.97,SE,142,0.0,0.0,92,0.00,,,0.00,VWS V14.01,2013-06-02 08:45:00,
2013-06-02 04:47:00,75.4,72.9,29.97,SE,142,0.0,0.0,92,0.00,,,0.00,VWS V14.01,2013-06-02 08:47:00,
2013-06-02 04:50:00,75.3,72.8,29.97,SE,142,0.0,0.0,92,0.00,,,0.00,VWS V14.01,2013-06-02 08:50:00,
2013-06-02 04:52:00,75.3,72.8,29.97,SE,142,0.0,0.0,92,0.00,,,0.00,VWS V14.01,2013-06-02 08:52:00,
2013-06-02 04:55:00,75.2,72.8,29.98,SE,142,0.0,0.0,92,0.00,,,0.00,VWS V14.01,2013-06-02 08:55:00,
2013-06-02 04:57:00,75.2,72.8,29.97,SE,142,0.0,0.0,92,0.00,,,0.00,VWS V14.01,2013-06-02 08:57:00,
2013-06-02 05:00:00,75.2,72.8,29.97,SE,142,0.0,0.0,92,0.00,,,0.00,VWS V14.01,2013-06-02 09:00:00,
2013-06-02 05:02:00,75.2,72.8,29.97,SE,142,0.0,0.0,92,0.00,,,0.00,VWS V14.01,2013-06-02 09:02:00,
2013-06-02 05:05:00,75.1,72.7,29.97,SE,142,0.0,0.0,92,0.00,,,0.00,VWS V14.01,2013-06-02 09:05:00,
2013-06-02 05:07:00,75.1,72.7,29.97,SE,142,0.0,0.0,92,0.00,,,0.00,VWS V14.01,2013-06-02 09:07:00,
2013-06-02 05:10:00,75.1,72.7,29.97,SE,142,0.0,0.0,92,0.00,,,0.00,VWS V14.01,2013-06-02 09:10:00,
2013-06-02 05:12:00,75.0,72.6,29.97,SE,142,0.0,0.0,92,0.00,,,0.00,VWS V14.01,2013-06-02 09:12:00,
2013-06-02 05:15:00,75.0,72.6,29.97,SE,142,0.0,0.0,92,0.00,,,0.00,VWS V14.01,2013-06-02 09:15:00,
2013-06-02 05:17:00,75.1,72.7,29.97,SE,142,0.0,0.0,92,0.00,,,0.00,VWS V14.01,2013-06-02 09:17:00,
2013-06-02 05:20:00,75.0,72.6,29.97,SE,142,0.0,0.0,92,0.00,,,0.00,VWS V14.01,2013-06-02 09:20:00,
2013-06-02 05:22:00,75.0,72.6,29.97,SE,142,0.0,0.0,92,0.00,,,0.00,VWS V14.01,2013-06-02 09:22:00,
2013-06-02 05:25:00,75.0,72.6,29.98,SE,142,0.0,0.0,92,0.00,,,0.00,VWS V14.01,2013-06-02 09:25:00,
2013-06-02 05:27:00,75.1,72.7,29.97,SE,142,0.0,0.0,92,0.00,,,0.00,VWS V14.01,2013-06-02 09:27:00,
2013-06-02 05:30:00,74.9,72.5,29.98,SE,142,0.0,0.0,92,0.00,,,0.00,VWS V14.01,2013-06-02 09:30:00,
2013-06-02 05:32:00,75.0,72.6,29.97,SE,142,0.0,0.0,92,0.00,,,0.00,VWS V14.01,2013-06-02 09:32:00,
2013-06-02 05:35:00,74.9,72.5,29.98,SE,142,0.0,0.0,92,0.00,,,0.00,VWS V14.01,2013-06-02 09:35:00,
2013-06-02 05:37:00,75.0,72.6,29.98,SE,142,0.0,0.0,92,0.00,,,0.00,VWS V14.01,2013-06-02 09:37:00,
2013-06-02 05:40:00,74.9,72.5,29.98,SE,142,0.0,0.0,92,0.00,,,0.00,VWS V14.01,2013-06-02 09:40:00,
2013-06-02 05:42:00,74.9,72.5,29.98,SE,142,0.0,0.0,92,0.00,,,0.00,VWS V14.01,2013-06-02 09:42:00,
2013-06-02 05:45:00,74.9,72.5,29.98,SE,142,0.0,0.0,92,0.00,,,0.00,VWS V14.01,2013-06-02 09:45:00,
2013-06-02 05:47:00,74.9,72.5,29.98,SE,142,0.0,0.0,92,0.00,,,0.00,VWS V14.01,2013-06-02 09:47:00,
2013-06-02 05:50:00,74.9,72.5,29.98,SE,142,0.0,0.0,92,0.00,,,0.00,VWS V14.01,2013-06-02 09:50:00,
2013-06-02 05:52:00,74.9,72.5,29.98,SE,142,0.0,0.0,92,0.00,,,0.00,VWS V14.01,2013-06-02 09:52:00,
2013-06-02 05:55:00,75.0,72.6,29.98,SE,142,0.0,0.0,92,0.00,,,0.00,VWS V14.01,2013-06-02 09:55:00,
2013-06-02 05:57:00,75.0,72.6,29.98,SE,142,0.0,0.0,92,0.00,,,0.00,VWS V14.01,2013-06-02 09:57:00,
2013-06-02 06:00:00,75.0,72.6,29.98,SE,142,0.0,0.0,92,0.00,,,0.00,VWS V14.01,2013-06-02 10:00:00,
2013-06-02 06:02:00,74.9,72.5,29.98,SE,142,0.0,0.0,92,0.00,,,0.00,VWS V14.01,2013-06-02 10:02:00,
2013-06-02 06:05:00,75.0,72.6,29.99,SE,142,0.0,0.0,92,0.00,,,0.00,VWS V14.01,2013-06-02 10:05:00,
2013-06-02 06:07:00,75.0,72.6,29.99,SE,142,0.0,0.0,92,0.00,,,0.00,VWS V14.01,2013-06-02 10:07:00,
2013-06-02 06:10:00,75.0,72.6,29.99,SE,142,0.0,0.0,92,0.00,,,0.00,VWS V14.01,2013-06-02 10:10:00,
2013-06-02 06:12:00,74.9,72.5,29.99,SE,142,0.0,0.0,92,0.00,,,0.00,VWS V14.01,2013-06-02 10:12:00,
2013-06-02 06:15:00,74.9,72.5,29.99,SE,142,0.0,0.0,92,0.00,,,0.00,VWS V14.01,2013-06-02 10:15:00,
2013-06-02 06:17:00,74.9,72.5,29.99,SE,142,0.0,0.0,92,0.00,,,0.00,VWS V14.01,2013-06-02 10:17:00,
2013-06-02 06:20:00,74.9,72.5,29.99,SE,142,0.0,0.0,92,0.00,,,0.00,VWS V14.01,2013-06-02 10:20:00,
2013-06-02 06:22:00,74.9,72.5,29.99,SE,142,0.0,0.0,92,0.00,,,0.00,VWS V14.01,2013-06-02 10:22:00,
2013-06-02 06:25:00,74.9,72.5,29.99,SE,142,0.0,0.0,92,0.00,,,0.00,VWS V14.01,2013-06-02 10:25:00,
2013-06-02 06:27:00,74.9,72.6,29.99,SE,142,0.0,0.0,92,0.00,,,0.00,VWS V14.01,2013-06-02 10:27:00,
2013-06-02 06:30:00,74.9,72.6,29.99,SE,142,0.0,0.0,92,0.00,,,0.00,VWS V14.01,2013-06-02 10:30:00,
2013-06-02 06:32:00,74.8,72.4,29.99,SE,142,0.0,0.0,92,0.00,,,0.00,VWS V14.01,2013-06-02 10:32:00,
2013-06-02 06:35:00,74.9,72.6,29.99,SE,142,0.0,0.0,92,0.00,,,0.00,VWS V14.01,2013-06-02 10:35:00,
2013-06-02 06:37:00,74.8,72.4,29.99,SE,142,0.0,0.0,92,0.00,,,0.00,VWS V14.01,2013-06-02 10:37:00,
2013-06-02 06:40:00,74.8,72.4,29.99,SE,142,0.0,0.0,92,0.00,,,0.00,VWS V14.01,2013-06-02 10:40:00,
2013-06-02 06:42:00,74.8,72.4,29.99,SE,142,0.0,0.0,92,0.00,,,0.00,VWS V14.01,2013-06-02 10:42:00,
2013-06-02 06:45:00,74.9,72.6,29.99,SE,142,0.0,0.0,92,0.00,,,0.00,VWS V14.01,2013-06-02 10:45:00,
2013-06-02 06:47:00,74.9,72.6,29.99,SE,142,0.0,0.0,92,0.00,,,0.00,VWS V14.01,2013-06-02 10:47:00,
2013-06-02 06:50:00,74.8,72.4,29.99,SE,142,0.0,0.0,92,0.00,,,0.00,VWS V14.01,2013-06-02 10:50:00,
2013-06-02 06:52:00,74.9,72.6,29.99,SE,142,0.0,0.0,92,0.00,,,0.00,VWS V14.01,2013-06-02 10:52:00,
2013-06-02 06:55:00,74.8,72.4,29.99,SE,142,0.0,0.0,92,0.00,,,0.00,VWS V14.01,2013-06-02 10:55:00,
2013-06-02 06:57:00,74.8,72.4,29.99,SE,142,0.0,0.0,92,0.00,,,0.00,VWS V14.01,2013-06-02 10:57:00,
2013-06-02 07:00:00,74.7,72.4,29.99,SE,142,0.0,0.0,92,0.00,,,0.00,VWS V14.01,2013-06-02 11:00:00,
2013-06-02 07:02:00,74.9,72.6,29.99,SE,142,0.0,0.0,92,0.00,,,0.00,VWS V14.01,2013-06-02 11:02:00,
2013-06-02 07:05:00,74.8,72.5,29.99,SE,142,0.0,0.0,92,0.00,,,0.00,VWS V14.01,2013-06-02 11:05:00,
2013-06-02 07:07:00,74.8,72.5,29.99,SE,142,0.0,0.0,92,0.00,,,0.00,VWS V14.01,2013-06-02 11:07:00,
2013-06-02 07:10:00,74.8,72.5,29.99,SE,142,0.0,0.0,92,0.00,,,0.00,VWS V14.01,2013-06-02 11:10:00,
2013-06-02 07:12:00,74.8,72.5,29.99,SE,142,0.0,0.0,92,0.00,,,0.00,VWS V14.01,2013-06-02 11:12:00,
2013-06-02 07:15:00,74.8,72.5,29.99,SE,142,0.0,0.0,93,0.00,,,0.00,VWS V14.01,2013-06-02 11:15:00,
2013-06-02 07:17:00,74.9,72.6,29.99,SE,142,0.0,0.0,93,0.00,,,0.00,VWS V14.01,2013-06-02 11:17:00,
2013-06-02 07:20:00,75.0,72.7,29.99,SE,142,0.0,0.0,93,0.00,,,0.00,VWS V14.01,2013-06-02 11:20:00,
2013-06-02 07:22:00,74.9,72.6,29.99,SE,142,0.0,0.0,93,0.00,,,0.00,VWS V14.01,2013-06-02 11:22:00,
2013-06-02 07:25:00,75.0,72.7,30.00,SE,142,0.0,0.0,93,0.00,,,0.00,VWS V14.01,2013-06-02 11:25:00,
2013-06-02 07:27:00,75.1,72.8,30.00,SE,142,0.0,0.0,93,0.00,,,0.00,VWS V14.01,2013-06-02 11:27:00,
2013-06-02 07:30:00,75.1,72.8,29.99,SE,142,0.0,0.0,93,0.00,,,0.00,VWS V14.01,2013-06-02 11:30:00,
2013-06-02 07:32:00,75.2,72.9,29.99,SE,142,0.0,0.0,93,0.00,,,0.00,VWS V14.01,2013-06-02 11:32:00,
2013-06-02 07:35:00,75.2,73.0,29.99,SE,142,0.0,0.0,93,0.00,,,0.00,VWS V14.01,2013-06-02 11:35:00,
2013-06-02 07:37:00,75.2,73.0,29.99,SE,142,0.0,0.0,93,0.00,,,0.00,VWS V14.01,2013-06-02 11:37:00,
2013-06-02 07:40:00,75.4,73.2,29.99,SE,142,0.0,0.0,93,0.00,,,0.00,VWS V14.01,2013-06-02 11:40:00,
2013-06-02 07:42:00,75.4,73.2,29.99,SE,142,0.0,0.0,93,0.00,,,0.00,VWS V14.01,2013-06-02 11:42:00,
2013-06-02 07:45:00,75.6,73.4,29.99,SE,142,0.0,0.0,93,0.00,,,0.00,VWS V14.01,2013-06-02 11:45:00,
2013-06-02 07:47:00,75.5,73.3,29.99,SE,142,0.0,0.0,93,0.00,,,0.00,VWS V14.01,2013-06-02 11:47:00,
2013-06-02 07:50:00,75.7,73.5,29.99,SE,142,0.0,0.0,93,0.00,,,0.00,VWS V14.01,2013-06-02 11:50:00,
2013-06-02 07:52:00,75.8,73.6,29.99,SE,142,0.0,0.0,93,0.00,,,0.00,VWS V14.01,2013-06-02 11:52:00,
2013-06-02 07:55:00,75.9,73.7,29.99,SE,142,0.0,0.0,93,0.00,,,0.00,VWS V14.01,2013-06-02 11:55:00,
2013-06-02 07:57:00,75.8,73.6,29.99,SE,142,0.0,0.0,93,0.00,,,0.00,VWS V14.01,2013-06-02 11:57:00,
2013-06-02 08:00:00,75.9,73.7,29.99,SE,142,0.0,0.0,93,0.00,,,0.00,VWS V14.01,2013-06-02 12:00:00,
2013-06-02 08:02:00,75.9,73.7,29.99,SE,142,0.0,0.0,93,0.00,,,0.00,VWS V14.01,2013-06-02 12:02:00,
2013-06-02 08:05:00,76.1,74.0,30.00,SE,142,0.0,0.0,93,0.00,,,0.00,VWS V14.01,2013-06-02 12:05:00,
2013-06-02 08:07:00,76.1,73.9,30.00,SE,142,0.0,0.0,93,0.00,,,0.00,VWS V14.01,2013-06-02 12:07:00,
2013-06-02 08:10:00,76.3,74.2,30.00,SE,142,0.0,0.0,93,0.00,,,0.00,VWS V14.01,2013-06-02 12:10:00,
2013-06-02 08:12:00,76.3,74.2,30.00,SE,142,0.0,0.0,93,0.00,,,0.00,VWS V14.01,2013-06-02 12:12:00,
2013-06-02 08:15:00,76.4,74.3,30.00,SE,142,0.0,0.0,93,0.00,,,0.00,VWS V14.01,2013-06-02 12:15:00,
2013-06-02 08:17:00,76.4,74.3,30.00,SE,142,0.0,0.0,93,0.00,,,0.00,VWS V14.01,2013-06-02 12:17:00,
2013-06-02 08:20:00,76.7,74.6,30.00,SE,142,0.0,0.0,93,0.00,,,0.00,VWS V14.01,2013-06-02 12:20:00,
2013-06-02 08:22:00,76.7,74.6,30.00,SE,142,0.0,0.0,93,0.00,,,0.00,VWS V14.01,2013-06-02 12:22:00,
2013-06-02 08:25:00,76.8,74.7,30.00,SE,142,0.0,0.0,93,0.00,,,0.00,VWS V14.01,2013-06-02 12:25:00,
2013-06-02 08:27:00,76.8,74.7,30.00,SE,142,0.0,0.0,93,0.00,,,0.00,VWS V14.01,2013-06-02 12:27:00,
2013-06-02 08:30:00,76.9,74.7,30.00,SE,142,0.0,0.0,93,0.00,,,0.00,VWS V14.01,2013-06-02 12:30:00,
2013-06-02 08:32:00,76.9,74.7,30.00,SE,142,0.0,0.0,93,0.00,,,0.00,VWS V14.01,2013-06-02 12:32:00,
2013-06-02 08:35:00,76.9,74.7,30.00,SE,142,0.0,0.0,93,0.00,,,0.00,VWS V14.01,2013-06-02 12:35:00,
2013-06-02 08:37:00,77.0,74.8,30.00,SE,142,0.0,0.0,93,0.00,,,0.00,VWS V14.01,2013-06-02 12:37:00,
2013-06-02 08:40:00,77.0,74.7,30.01,SE,142,0.0,0.0,93,0.00,,,0.00,VWS V14.01,2013-06-02 12:40:00,
2013-06-02 08:42:00,77.1,74.8,30.01,SE,142,0.0,0.0,93,0.00,,,0.00,VWS V14.01,2013-06-02 12:42:00,
2013-06-02 08:45:00,77.3,75.0,30.00,SE,142,0.0,0.0,93,0.00,,,0.00,VWS V14.01,2013-06-02 12:45:00,
2013-06-02 08:47:00,77.4,75.1,30.00,SE,142,0.0,0.0,93,0.00,,,0.00,VWS V14.01,2013-06-02 12:47:00,
2013-06-02 08:50:00,77.7,75.4,30.00,SE,142,0.0,0.0,92,0.00,,,0.00,VWS V14.01,2013-06-02 12:50:00,
2013-06-02 08:51:00,77.8,75.5,30.00,SE,142,0.0,0.0,92,0.00,,,0.00,VWS V14.01,2013-06-02 12:51:00,
2013-06-02 08:55:00,77.8,75.3,30.00,SE,142,0.0,0.0,92,0.00,,,0.00,VWS V14.01,2013-06-02 12:55:00,
2013-06-02 08:56:00,77.8,75.3,30.00,SE,142,0.0,0.0,92,0.00,,,0.00,VWS V14.01,2013-06-02 12:56:00,
2013-06-02 09:00:00,78.0,75.3,30.00,SE,142,0.0,0.0,92,0.00,,,0.00,VWS V14.01,2013-06-02 13:00:00,
2013-06-02 09:01:00,78.1,75.4,30.00,SE,142,0.0,0.0,91,0.00,,,0.00,VWS V14.01,2013-06-02 13:01:00,
2013-06-02 09:05:00,78.2,75.2,30.00,SE,142,0.0,0.0,91,0.00,,,0.00,VWS V14.01,2013-06-02 13:05:00,
2013-06-02 09:06:00,78.2,75.2,30.00,SE,142,0.0,0.0,91,0.00,,,0.00,VWS V14.01,2013-06-02 13:06:00,
2013-06-02 09:10:00,78.3,75.3,30.01,SE,142,0.0,0.0,91,0.00,,,0.00,VWS V14.01,2013-06-02 13:10:00,
2013-06-02 09:11:00,78.3,75.3,30.01,SE,142,0.0,0.0,91,0.00,,,0.00,VWS V14.01,2013-06-02 13:11:00,
2013-06-02 09:15:00,78.4,75.4,30.01,SE,142,0.0,0.0,90,0.00,,,0.00,VWS V14.01,2013-06-02 13:15:00,
2013-06-02 09:16:00,78.4,75.4,30.01,SE,142,0.0,0.0,90,0.00,,,0.00,VWS V14.01,2013-06-02 13:16:00,
2013-06-02 09:20:00,78.7,75.6,30.00,SE,142,0.0,0.0,90,0.00,,,0.00,VWS V14.01,2013-06-02 13:20:00,
2013-06-02 09:21:00,78.7,75.6,30.00,SE,142,0.0,0.0,90,0.00,,,0.00,VWS V14.01,2013-06-02 13:21:00,
2013-06-02 09:25:00,78.9,75.6,30.01,SE,142,0.0,0.0,90,0.00,,,0.00,VWS V14.01,2013-06-02 13:25:00,
2013-06-02 09:26:00,78.9,75.6,30.01,SE,142,0.0,0.0,90,0.00,,,0.00,VWS V14.01,2013-06-02 13:26:00,
2013-06-02 09:30:00,78.9,75.5,30.01,SE,142,0.0,0.0,89,0.00,,,0.00,VWS V14.01,2013-06-02 13:30:00,
2013-06-02 09:31:00,78.9,75.5,30.01,SE,142,0.0,0.0,89,0.00,,,0.00,VWS V14.01,2013-06-02 13:31:00,
2013-06-02 09:35:00,78.9,75.2,30.01,SE,142,0.0,0.0,88,0.00,,,0.00,VWS V14.01,2013-06-02 13:35:00,
2013-06-02 09:36:00,78.9,75.2,30.01,SE,142,0.0,0.0,88,0.00,,,0.00,VWS V14.01,2013-06-02 13:36:00,
2013-06-02 09:40:00,79.0,75.4,30.01,SE,142,0.0,0.0,89,0.00,,,0.00,VWS V14.01,2013-06-02 13:40:00,
2013-06-02 09:41:00,79.0,75.4,30.01,SE,142,0.0,0.0,89,0.00,,,0.00,VWS V14.01,2013-06-02 13:41:00,
2013-06-02 09:45:00,79.1,75.6,30.01,SE,142,0.0,0.0,89,0.00,,,0.00,VWS V14.01,2013-06-02 13:45:00,
2013-06-02 09:46:00,79.1,75.6,30.01,SE,142,0.0,0.0,89,0.00,,,0.00,VWS V14.01,2013-06-02 13:46:00,
2013-06-02 09:50:00,79.1,75.2,30.01,SE,142,0.0,0.0,88,0.00,,,0.00,VWS V14.01,2013-06-02 13:50:00,
2013-06-02 09:51:00,79.1,75.2,30.01,SE,142,0.0,0.0,88,0.00,,,0.00,VWS V14.01,2013-06-02 13:51:00,
2013-06-02 09:55:00,79.0,74.9,30.01,SE,142,0.0,0.0,87,0.00,,,0.00,VWS V14.01,2013-06-02 13:55:00,
2013-06-02 09:56:00,79.0,74.9,30.01,SE,142,0.0,0.0,87,0.00,,,0.00,VWS V14.01,2013-06-02 13:56:00,
2013-06-02 10:00:00,79.0,75.0,30.01,SE,142,0.0,0.0,88,0.00,,,0.00,VWS V14.01,2013-06-02 14:00:00,
2013-06-02 10:01:00,78.9,74.9,30.01,SE,142,0.0,0.0,88,0.00,,,0.00,VWS V14.01,2013-06-02 14:01:00,
2013-06-02 10:05:00,79.0,75.1,30.01,SE,142,0.0,0.0,88,0.00,,,0.00,VWS V14.01,2013-06-02 14:05:00,
2013-06-02 10:06:00,79.0,75.1,30.01,SE,142,0.0,0.0,88,0.00,,,0.00,VWS V14.01,2013-06-02 14:06:00,
2013-06-02 10:10:00,79.1,75.3,30.01,SE,142,0.0,0.0,88,0.00,,,0.00,VWS V14.01,2013-06-02 14:10:00,
2013-06-02 10:11:00,79.1,75.3,30.01,SE,142,0.0,0.0,88,0.00,,,0.00,VWS V14.01,2013-06-02 14:11:00,
2013-06-02 10:15:00,79.7,75.7,30.01,SE,142,0.0,0.0,88,0.00,,,0.00,VWS V14.01,2013-06-02 14:15:00,
2013-06-02 10:16:00,79.7,75.9,30.01,SE,142,0.0,0.0,88,0.00,,,0.00,VWS V14.01,2013-06-02 14:16:00,
2013-06-02 10:20:00,80.1,75.7,30.01,SE,142,0.0,0.0,86,0.00,,,0.00,VWS V14.01,2013-06-02 14:20:00,
2013-06-02 10:21:00,80.1,75.6,30.01,SE,142,0.0,0.0,86,0.00,,,0.00,VWS V14.01,2013-06-02 14:21:00,
2013-06-02 10:25:00,80.4,75.3,30.00,SE,142,0.0,0.0,85,0.00,,,0.00,VWS V14.01,2013-06-02 14:25:00,
2013-06-02 10:26:00,80.5,75.4,30.00,SE,142,0.0,0.0,84,0.00,,,0.00,VWS V14.01,2013-06-02 14:26:00,
2013-06-02 10:30:00,80.7,75.6,30.00,SE,142,0.0,0.0,85,0.00,,,0.00,VWS V14.01,2013-06-02 14:30:00,
2013-06-02 10:31:00,80.7,75.7,30.00,SE,142,0.0,0.0,85,0.00,,,0.00,VWS V14.01,2013-06-02 14:31:00,
2013-06-02 10:35:00,80.8,75.6,30.00,SE,142,0.0,0.0,84,0.00,,,0.00,VWS V14.01,2013-06-02 14:35:00,
2013-06-02 10:36:00,80.9,75.7,30.00,SE,142,0.0,0.0,84,0.00,,,0.00,VWS V14.01,2013-06-02 14:36:00,
2013-06-02 10:40:00,80.7,75.0,30.00,SE,142,0.0,0.0,83,0.00,,,0.00,VWS V14.01,2013-06-02 14:40:00,
2013-06-02 10:41:00,80.7,75.0,30.00,SE,142,0.0,0.0,83,0.00,,,0.00,VWS V14.01,2013-06-02 14:41:00,
2013-06-02 10:45:00,80.5,75.0,30.00,SE,142,0.0,0.0,83,0.00,,,0.00,VWS V14.01,2013-06-02 14:45:00,
2013-06-02 10:46:00,80.7,75.2,30.00,SE,142,0.0,0.0,83,0.00,,,0.00,VWS V14.01,2013-06-02 14:46:00,
2013-06-02 10:50:00,80.7,75.3,30.00,SE,142,0.0,0.0,84,0.00,,,0.00,VWS V14.01,2013-06-02 14:50:00,
2013-06-02 10:51:00,80.6,75.2,30.00,SE,142,0.0,0.0,84,0.00,,,0.00,VWS V14.01,2013-06-02 14:51:00,
2013-06-02 10:55:00,80.9,75.2,30.00,SE,142,0.0,0.0,83,0.00,,,0.00,VWS V14.01,2013-06-02 14:55:00,
2013-06-02 10:56:00,80.9,75.2,30.00,SE,142,0.0,0.0,83,0.00,,,0.00,VWS V14.01,2013-06-02 14:56:00,
2013-06-02 11:00:00,81.4,75.1,30.00,SE,142,0.0,0.0,81,0.00,,,0.00,VWS V14.01,2013-06-02 15:00:00,
2013-06-02 11:01:00,81.4,75.1,30.00,SE,142,0.0,0.0,81,0.00,,,0.00,VWS V14.01,2013-06-02 15:01:00,
2013-06-02 11:05:00,81.9,74.6,30.00,SE,142,0.0,0.0,78,0.00,,,0.00,VWS V14.01,2013-06-02 15:05:00,
2013-06-02 11:06:00,81.9,74.6,30.00,SE,142,0.0,0.0,79,0.00,,,0.00,VWS V14.01,2013-06-02 15:06:00,
2013-06-02 11:10:00,82.4,74.7,29.99,SE,142,0.0,0.0,78,0.00,,,0.00,VWS V14.01,2013-06-02 15:10:00,
2013-06-02 11:11:00,82.4,74.7,29.99,SE,142,0.0,0.0,78,0.00,,,0.00,VWS V14.01,2013-06-02 15:11:00,
2013-06-02 11:15:00,82.7,74.6,29.99,SE,142,0.0,0.0,77,0.00,,,0.00,VWS V14.01,2013-06-02 15:15:00,
2013-06-02 11:16:00,82.8,74.7,29.99,SE,142,0.0,0.0,77,0.00,,,0.00,VWS V14.01,2013-06-02 15:16:00,
2013-06-02 11:20:00,83.2,74.7,29.99,SE,142,0.0,0.0,76,0.00,,,0.00,VWS V14.01,2013-06-02 15:20:00,
2013-06-02 11:21:00,83.2,74.7,29.99,SE,142,0.0,0.0,76,0.00,,,0.00,VWS V14.01,2013-06-02 15:21:00,
2013-06-02 11:25:00,83.4,74.8,29.99,SE,136,0.0,4.2,76,0.00,,,0.00,VWS V14.01,2013-06-02 15:25:00,
2013-06-02 11:26:00,83.4,74.8,29.99,SE,136,0.0,4.2,76,0.00,,,0.00,VWS V14.01,2013-06-02 15:26:00,
2013-06-02 11:30:00,83.7,74.3,29.99,SE,136,0.0,0.0,73,0.00,,,0.00,VWS V14.01,2013-06-02 15:30:00,
2013-06-02 11:31:00,83.7,74.5,29.99,SE,136,0.0,0.0,74,0.00,,,0.00,VWS V14.01,2013-06-02 15:31:00,
2013-06-02 11:35:00,84.0,74.8,29.98,SE,136,0.0,0.0,74,0.00,,,0.00,VWS V14.01,2013-06-02 15:35:00,
2013-06-02 11:36:00,84.0,75.0,29.98,SE,136,0.0,0.0,74,0.00,,,0.00,VWS V14.01,2013-06-02 15:36:00,
2013-06-02 11:40:00,84.3,75.3,29.99,South,172,0.0,0.0,74,0.00,,,0.00,VWS V14.01,2013-06-02 15:40:00,
2013-06-02 11:41:00,84.3,75.3,29.99,South,172,0.0,0.0,74,0.00,,,0.00,VWS V14.01,2013-06-02 15:41:00,
2013-06-02 11:45:00,84.3,75.0,29.99,South,172,0.0,0.0,74,0.00,,,0.00,VWS V14.01,2013-06-02 15:45:00,
2013-06-02 11:46:00,84.3,74.9,29.99,South,172,0.0,0.0,74,0.00,,,0.00,VWS V14.01,2013-06-02 15:46:00,
2013-06-02 11:50:00,84.3,74.9,29.98,South,172,0.0,0.0,74,0.00,,,0.00,VWS V14.01,2013-06-02 15:50:00,
2013-06-02 11:51:00,84.3,75.1,29.98,South,172,0.0,0.0,74,0.00,,,0.00,VWS V14.01,2013-06-02 15:51:00,
2013-06-02 11:55:00,84.3,75.4,29.98,SW,225,0.0,0.0,75,0.00,,,0.00,VWS V14.01,2013-06-02 15:55:00,
2013-06-02 11:56:00,84.4,75.6,29.98,SW,225,0.0,0.0,75,0.00,,,0.00,VWS V14.01,2013-06-02 15:56:00,
2013-06-02 12:00:00,84.3,75.2,29.98,SW,225,0.0,0.0,74,0.00,,,0.00,VWS V14.01,2013-06-02 16:00:00,
2013-06-02 12:01:00,84.4,75.2,29.98,SW,225,0.0,0.0,74,0.00,,,0.00,VWS V14.01,2013-06-02 16:01:00,
2013-06-02 12:05:00,84.4,75.3,29.98,SW,225,0.0,0.0,74,0.00,,,0.00,VWS V14.01,2013-06-02 16:05:00,
2013-06-02 12:06:00,84.4,75.4,29.98,SW,225,0.0,0.0,74,0.00,,,0.00,VWS V14.01,2013-06-02 16:06:00,
2013-06-02 12:10:00,84.3,75.2,29.98,SW,225,0.0,0.0,74,0.00,,,0.00,VWS V14.01,2013-06-02 16:10:00,
2013-06-02 12:11:00,84.4,75.4,29.98,SW,225,0.0,0.0,74,0.00,,,0.00,VWS V14.01,2013-06-02 16:11:00,
2013-06-02 12:15:00,84.4,75.0,29.98,SW,225,0.0,0.0,73,0.00,,,0.00,VWS V14.01,2013-06-02 16:15:00,
2013-06-02 12:16:00,84.5,75.0,29.98,SW,225,0.0,0.0,73,0.00,,,0.00,VWS V14.01,2013-06-02 16:16:00,
2013-06-02 12:20:00,85.0,74.6,29.97,SW,225,0.0,0.0,71,0.00,,,0.00,VWS V14.01,2013-06-02 16:20:00,
2013-06-02 12:21:00,84.9,74.6,29.97,SW,225,0.0,0.0,71,0.00,,,0.00,VWS V14.01,2013-06-02 16:21:00,
2013-06-02 12:25:00,85.6,74.0,29.98,SW,225,0.0,0.0,68,0.00,,,0.00,VWS V14.01,2013-06-02 16:25:00,
2013-06-02 12:26:00,85.6,74.0,29.97,SW,225,0.0,0.0,68,0.00,,,0.00,VWS V14.01,2013-06-02 16:26:00,
2013-06-02 12:30:00,86.3,74.6,29.97,SW,225,0.0,0.0,68,0.00,,,0.00,VWS V14.01,2013-06-02 16:30:00,
2013-06-02 12:31:00,86.2,74.4,29.97,SW,225,0.0,0.0,68,0.00,,,0.00,VWS V14.01,2013-06-02 16:31:00,
2013-06-02 12:35:00,86.8,74.3,29.97,SW,225,0.0,0.0,67,0.00,,,0.00,VWS V14.01,2013-06-02 16:35:00,
2013-06-02 12:36:00,86.7,73.8,29.97,SW,225,0.0,0.0,66,0.00,,,0.00,VWS V14.01,2013-06-02 16:36:00,
2013-06-02 12:40:00,87.4,75.3,29.97,SW,225,0.0,0.0,67,0.00,,,0.00,VWS V14.01,2013-06-02 16:40:00,
2013-06-02 12:41:00,87.3,75.2,29.97,SW,225,0.0,0.0,68,0.00,,,0.00,VWS V14.01,2013-06-02 16:41:00,
2013-06-02 12:45:00,88.0,75.7,29.97,SW,225,0.0,0.0,67,0.00,,,0.00,VWS V14.01,2013-06-02 16:45:00,
2013-06-02 12:46:00,87.9,75.6,29.97,SW,225,0.0,0.0,67,0.00,,,0.00,VWS V14.01,2013-06-02 16:46:00,
2013-06-02 12:50:00,88.7,75.8,29.97,SW,225,0.0,0.0,66,0.00,,,0.00,VWS V14.01,2013-06-02 16:50:00,
2013-06-02 12:51:00,88.6,75.6,29.97,SW,225,0.0,0.0,66,0.00,,,0.00,VWS V14.01,2013-06-02 16:51:00,
2013-06-02 12:55:00,89.4,76.3,29.97,SW,225,0.0,0.0,65,0.00,,,0.00,VWS V14.01,2013-06-02 16:55:00,
2013-06-02 12:56:00,89.4,76.2,29.97,SW,225,0.0,0.0,65,0.00,,,0.00,VWS V14.01,2013-06-02 16:56:00,
2013-06-02 13:00:00,89.7,75.5,29.97,SW,225,0.0,0.0,63,0.00,,,0.00,VWS V14.01,2013-06-02 17:00:00,
2013-06-02 13:01:00,89.6,75.5,29.97,SW,225,0.0,0.0,63,0.00,,,0.00,VWS V14.01,2013-06-02 17:01:00,
2013-06-02 13:05:00,90.0,74.7,29.96,SW,225,0.0,0.0,61,0.00,,,0.00,VWS V14.01,2013-06-02 17:05:00,
2013-06-02 13:06:00,90.0,74.4,29.97,SW,225,0.0,0.0,60,0.00,,,0.00,VWS V14.01,2013-06-02 17:06:00,
2013-06-02 13:10:00,90.5,75.5,29.96,SW,225,0.0,0.0,62,0.00,,,0.00,VWS V14.01,2013-06-02 17:10:00,
2013-06-02 13:11:00,90.4,75.4,29.96,SW,225,0.0,0.0,62,0.00,,,0.00,VWS V14.01,2013-06-02 17:11:00,
2013-06-02 13:15:00,91.3,74.6,29.96,SW,225,0.0,0.0,58,0.00,,,0.00,VWS V14.01,2013-06-02 17:15:00,
2013-06-02 13:16:00,91.1,74.0,29.96,SW,225,0.0,0.0,58,0.00,,,0.00,VWS V14.01,2013-06-02 17:16:00,
2013-06-02 13:20:00,92.1,74.7,29.96,WSW,248,0.0,0.0,57,0.00,,,0.00,VWS V14.01,2013-06-02 17:20:00,
2013-06-02 13:21:00,92.1,74.9,29.96,WSW,248,0.0,0.0,58,0.00,,,0.00,VWS V14.01,2013-06-02 17:21:00,
2013-06-02 13:25:00,92.3,74.8,29.96,West,270,3.4,6.2,57,0.00,,,0.00,VWS V14.01,2013-06-02 17:25:00,
2013-06-02 13:26:00,92.3,74.6,29.96,NW,308,0.0,5.7,56,0.00,,,0.00,VWS V14.01,2013-06-02 17:26:00,
2013-06-02 13:30:00,93.1,74.9,29.96,WSW,249,0.0,0.0,56,0.00,,,0.00,VWS V14.01,2013-06-02 17:30:00,
2013-06-02 13:31:00,93.0,74.7,29.96,WSW,249,0.0,0.0,56,0.00,,,0.00,VWS V14.01,2013-06-02 17:31:00,
2013-06-02 13:35:00,93.4,75.1,29.96,WSW,249,0.0,0.0,56,0.00,,,0.00,VWS V14.01,2013-06-02 17:35:00,
2013-06-02 13:36:00,93.2,75.4,29.95,WSW,249,0.0,0.0,56,0.00,,,0.00,VWS V14.01,2013-06-02 17:36:00,
2013-06-02 13:40:00,94.0,74.6,29.95,WSW,249,0.0,0.0,54,0.00,,,0.00,VWS V14.01,2013-06-02 17:40:00,
2013-06-02 13:41:00,94.0,74.4,29.95,WSW,249,0.0,0.0,53,0.00,,,0.00,VWS V14.01,2013-06-02 17:41:00,
2013-06-02 13:45:00,92.8,74.3,29.95,WSW,249,0.0,0.0,55,0.00,,,0.00,VWS V14.01,2013-06-02 17:45:00,
2013-06-02 13:46:00,93.0,74.3,29.95,WSW,249,0.0,0.0,55,0.00,,,0.00,VWS V14.01,2013-06-02 17:46:00,
2013-06-02 13:50:00,92.5,74.7,29.95,WSW,249,0.0,0.0,56,0.00,,,0.00,VWS V14.01,2013-06-02 17:50:00,
2013-06-02 13:51:00,92.2,74.6,29.95,WSW,249,0.0,0.0,57,0.00,,,0.00,VWS V14.01,2013-06-02 17:51:00,
2013-06-02 13:55:00,93.0,74.3,29.95,WSW,249,0.0,0.0,55,0.00,,,0.00,VWS V14.01,2013-06-02 17:55:00,
2013-06-02 13:56:00,93.0,74.6,29.95,WSW,249,0.0,0.0,55,0.00,,,0.00,VWS V14.01,2013-06-02 17:56:00,
2013-06-02 14:00:00,92.8,74.4,29.94,WSW,249,0.0,0.0,55,0.00,,,0.00,VWS V14.01,2013-06-02 18:00:00,
2013-06-02 14:01:00,92.9,74.2,29.95,WSW,249,0.0,0.0,55,0.00,,,0.00,VWS V14.01,2013-06-02 18:01:00,
2013-06-02 14:05:00,92.6,74.5,29.94,WSW,249,0.0,0.0,56,0.00,,,0.00,VWS V14.01,2013-06-02 18:05:00,
2013-06-02 14:06:00,92.5,74.6,29.95,WSW,249,0.0,0.0,56,0.00,,,0.00,VWS V14.01,2013-06-02 18:06:00,
2013-06-02 14:10:00,92.2,74.7,29.94,WSW,249,0.0,0.0,57,0.00,,,0.00,VWS V14.01,2013-06-02 18:10:00,
2013-06-02 14:11:00,92.3,73.9,29.95,WSW,249,0.0,0.0,55,0.00,,,0.00,VWS V14.01,2013-06-02 18:11:00,
2013-06-02 14:15:00,92.1,74.2,29.94,WSW,249,0.0,0.0,56,0.00,,,0.00,VWS V14.01,2013-06-02 18:15:00,
2013-06-02 14:16:00,92.0,74.1,29.94,WSW,249,0.0,0.0,56,0.00,,,0.00,VWS V14.01,2013-06-02 18:16:00,
2013-06-02 14:20:00,92.8,73.8,29.94,WSW,249,0.0,0.0,54,0.00,,,0.00,VWS V14.01,2013-06-02 18:20:00,
2013-06-02 14:21:00,93.0,74.8,29.94,WSW,249,0.0,0.0,56,0.00,,,0.00,VWS V14.01,2013-06-02 18:21:00,
2013-06-02 14:25:00,93.9,74.7,29.94,WSW,249,0.0,0.0,54,0.00,,,0.00,VWS V14.01,2013-06-02 18:25:00,
2013-06-02 14:26:00,93.9,74.8,29.94,WSW,249,0.0,0.0,54,0.00,,,0.00,VWS V14.01,2013-06-02 18:26:00,
2013-06-02 14:30:00,94.3,74.8,29.93,WSW,249,0.0,0.0,54,0.00,,,0.00,VWS V14.01,2013-06-02 18:30:00,
2013-06-02 14:31:00,94.5,75.2,29.94,WSW,249,0.0,0.0,54,0.00,,,0.00,VWS V14.01,2013-06-02 18:31:00,
2013-06-02 14:35:00,94.4,74.3,29.94,WSW,249,0.0,0.0,52,0.00,,,0.00,VWS V14.01,2013-06-02 18:35:00,
2013-06-02 14:36:00,94.4,74.0,29.94,WSW,249,0.0,0.0,52,0.00,,,0.00,VWS V14.01,2013-06-02 18:36:00,
2013-06-02 14:40:00,94.1,74.1,29.94,WSW,249,0.0,0.0,53,0.00,,,0.00,VWS V14.01,2013-06-02 18:40:00,
2013-06-02 14:41:00,94.4,74.5,29.94,WSW,249,0.0,0.0,53,0.00,,,0.00,VWS V14.01,2013-06-02 18:41:00,
2013-06-02 14:45:00,93.4,73.6,29.93,WSW,249,0.0,0.0,53,0.00,,,0.00,VWS V14.01,2013-06-02 18:45:00,
2013-06-02 14:46:00,93.8,73.9,29.93,WSW,249,0.0,0.0,53,0.00,,,0.00,VWS V14.01,2013-06-02 18:46:00,
2013-06-02 14:50:00,93.3,74.0,29.93,WSW,249,0.0,0.0,54,0.00,,,0.00,VWS V14.01,2013-06-02 18:50:00,
2013-06-02 14:51:00,93.4,73.8,29.93,WSW,249,0.0,0.0,53,0.00,,,0.00,VWS V14.01,2013-06-02 18:51:00,
2013-06-02 14:55:00,93.2,73.4,29.93,WSW,249,0.0,0.0,53,0.00,,,0.00,VWS V14.01,2013-06-02 18:55:00,
2013-06-02 14:56:00,93.2,73.3,29.93,WSW,249,0.0,0.0,53,0.00,,,0.00,VWS V14.01,2013-06-02 18:56:00,
2013-06-02 15:00:00,92.8,75.0,29.93,WSW,249,0.0,0.0,56,0.00,,,0.00,VWS V14.01,2013-06-02 19:00:00,
2013-06-02 15:05:00,92.3,77.0,29.92,WSW,249,0.0,0.0,61,0.00,,,0.00,VWS V14.01,2013-06-02 19:05:00,
2013-06-02 15:10:00,91.3,76.6,29.93,WSW,249,0.0,0.0,62,0.00,,,0.00,VWS V14.01,2013-06-02 19:10:00,
2013-06-02 15:15:00,90.7,76.6,29.92,WSW,249,0.0,0.0,64,0.00,,,0.00,VWS V14.01,2013-06-02 19:15:00,
2013-06-02 15:20:00,90.0,76.0,29.92,WSW,249,0.0,0.0,64,0.00,,,0.00,VWS V14.01,2013-06-02 19:20:00,
2013-06-02 15:25:00,89.6,76.3,29.92,WSW,249,0.0,0.0,65,0.00,,,0.00,VWS V14.01,2013-06-02 19:25:00,
2013-06-02 15:30:00,89.6,75.9,29.92,WSW,249,0.0,0.0,64,0.00,,,0.00,VWS V14.01,2013-06-02 19:30:00,
2013-06-02 15:35:00,89.4,75.7,29.92,WSW,249,0.0,0.0,64,0.00,,,0.00,VWS V14.01,2013-06-02 19:35:00,
2013-06-02 15:40:00,89.2,76.1,29.92,WSW,249,0.0,0.0,66,0.00,,,0.00,VWS V14.01,2013-06-02 19:40:00,
2013-06-02 15:45:00,89.1,76.3,29.92,WSW,249,0.0,0.0,66,0.00,,,0.00,VWS V14.01,2013-06-02 19:45:00,
2013-06-02 15:50:00,89.0,76.1,29.92,WSW,249,0.0,0.0,66,0.00,,,0.00,VWS V14.01,2013-06-02 19:50:00,
2013-06-02 15:55:00,88.6,75.7,29.91,WSW,249,0.0,0.0,66,0.00,,,0.00,VWS V14.01,2013-06-02 19:55:00,
2013-06-02 16:00:00,88.2,75.5,29.91,WSW,249,0.0,0.0,66,0.00,,,0.00,VWS V14.01,2013-06-02 20:00:00,
2013-06-02 16:05:00,87.6,76.2,29.91,WSW,249,0.0,2.6,69,0.01,,,0.01,VWS V14.01,2013-06-02 20:05:00,
2013-06-02 16:10:00,86.7,77.8,29.91,ENE,58,0.0,3.4,75,0.01,,,0.01,VWS V14.01,2013-06-02 20:10:00,
2013-06-02 16:15:00,84.6,77.3,29.91,NE,56,0.0,0.0,79,0.08,,,0.08,VWS V14.01,2013-06-02 20:15:00,
2013-06-02 16:20:00,82.4,75.3,29.92,NE,56,0.0,0.0,79,0.15,,,0.15,VWS V14.01,2013-06-02 20:20:00,
2013-06-02 16:25:00,80.1,74.6,29.92,NE,56,2.9,2.9,83,0.21,,,0.21,VWS V14.01,2013-06-02 20:25:00,
2013-06-02 16:30:00,77.1,73.9,29.92,East,82,5.0,6.0,90,0.29,,,0.29,VWS V14.01,2013-06-02 20:30:00,
2013-06-02 16:35:00,76.4,73.2,29.92,NE,37,0.0,5.1,90,0.37,,,0.37,VWS V14.01,2013-06-02 20:35:00,
2013-06-02 16:40:00,76.2,73.2,29.92,East,94,0.0,5.8,90,0.45,,,0.45,VWS V14.01,2013-06-02 20:40:00,
2013-06-02 16:45:00,76.4,73.3,29.92,SSE,167,0.0,3.5,90,0.53,,,0.53,VWS V14.01,2013-06-02 20:45:00,
2013-06-02 16:50:00,76.7,73.6,29.94,East,98,0.0,3.0,90,0.61,,,0.61,VWS V14.01,2013-06-02 20:50:00,
2013-06-02 16:55:00,76.6,73.8,29.92,SE,132,0.0,0.0,91,0.69,,,0.69,VWS V14.01,2013-06-02 20:55:00,
2013-06-02 17:00:00,77.0,74.2,29.93,SE,132,0.0,0.0,91,0.77,,,0.77,VWS V14.01,2013-06-02 21:00:00,
2013-06-02 17:05:00,77.7,74.7,29.93,SE,132,0.0,0.0,90,0.84,,,0.84,VWS V14.01,2013-06-02 21:05:00,
2013-06-02 17:10:00,78.0,74.9,29.93,SE,132,0.0,0.0,90,0.90,,,0.91,VWS V14.01,2013-06-02 21:10:00,
2013-06-02 17:15:00,78.4,75.3,29.92,SE,132,0.0,0.0,90,0.94,,,0.97,VWS V14.01,2013-06-02 21:15:00,
2013-06-02 17:20:00,78.8,74.9,29.92,SE,132,0.0,0.0,88,0.94,,,1.03,VWS V14.01,2013-06-02 21:20:00,
2013-06-02 17:25:00,78.9,75.0,29.92,SE,132,0.0,0.0,88,0.93,,,1.09,VWS V14.01,2013-06-02 21:25:00,
2013-06-02 17:30:00,79.0,75.3,29.92,SE,132,0.0,0.0,88,0.91,,,1.14,VWS V14.01,2013-06-02 21:30:00,
2013-06-02 17:35:00,79.2,75.4,29.92,SE,132,0.0,0.0,88,0.88,,,1.19,VWS V14.01,2013-06-02 21:35:00,
2013-06-02 17:40:00,79.3,75.6,29.92,SE,132,0.0,0.0,88,0.84,,,1.23,VWS V14.01,2013-06-02 21:40:00,
2013-06-02 17:45:00,79.3,75.8,29.92,SE,132,0.0,0.0,89,0.81,,,1.28,VWS V14.01,2013-06-02 21:45:00,
2013-06-02 17:50:00,79.2,75.8,29.91,SE,132,0.0,0.0,89,0.77,,,1.32,VWS V14.01,2013-06-02 21:50:00,
2013-06-02 18:01:00,79.3,75.9,29.91,SE,132,0.0,0.0,89,0.00,,,1.41,VWS V14.01,2013-06-02 22:01:00,
2013-06-02 18:06:00,79.0,75.1,29.91,SE,132,0.0,0.0,88,0.65,,,1.44,VWS V14.01,2013-06-02 22:06:00,
2013-06-02 18:11:00,78.9,75.2,29.91,SE,132,0.0,0.0,88,0.62,,,1.48,VWS V14.01,2013-06-02 22:11:00,
2013-06-02 18:16:00,78.8,75.2,29.91,SE,132,0.0,0.0,89,0.58,,,1.51,VWS V14.01,2013-06-02 22:16:00,
2013-06-02 18:21:00,78.8,75.2,29.91,SE,132,0.0,0.0,89,0.55,,,1.54,VWS V14.01,2013-06-02 22:21:00,
2013-06-02 18:26:00,78.5,74.9,29.91,SE,132,0.0,0.0,89,0.52,,,1.57,VWS V14.01,2013-06-02 22:26:00,
2013-06-02 18:31:00,78.4,74.9,29.90,SE,132,0.0,0.0,89,0.50,,,1.60,VWS V14.01,2013-06-02 22:31:00,
2013-06-02 18:36:00,78.3,74.8,29.90,SE,132,0.0,0.0,89,0.48,,,1.63,VWS V14.01,2013-06-02 22:36:00,
2013-06-02 18:41:00,78.4,75.2,29.89,SE,132,0.0,0.0,90,0.45,,,1.65,VWS V14.01,2013-06-02 22:41:00,
2013-06-02 18:46:00,78.3,75.1,29.89,SE,132,0.0,0.0,90,0.42,,,1.67,VWS V14.01,2013-06-02 22:46:00,
2013-06-02 18:51:00,78.4,75.2,29.91,SE,132,0.0,0.0,90,0.41,,,1.70,VWS V14.01,2013-06-02 22:51:00,
2013-06-02 18:56:00,78.4,75.2,29.92,SE,132,0.0,0.0,90,0.39,,,1.72,VWS V14.01,2013-06-02 22:56:00,
2013-06-02 19:01:00,78.3,75.2,29.92,SE,132,0.0,0.0,90,0.33,,,1.74,VWS V14.01,2013-06-02 23:01:00,
2013-06-02 19:06:00,78.2,75.1,29.92,SE,132,0.0,0.0,90,0.35,,,1.76,VWS V14.01,2013-06-02 23:06:00,
2013-06-02 19:11:00,78.2,75.1,29.92,SE,132,0.0,0.0,90,0.33,,,1.78,VWS V14.01,2013-06-02 23:11:00,
2013-06-02 19:16:00,78.2,75.2,29.92,SE,132,0.0,0.0,90,0.32,,,1.80,VWS V14.01,2013-06-02 23:16:00,
2013-06-02 19:21:00,78.3,75.3,29.92,SE,132,0.0,0.0,90,0.31,,,1.82,VWS V14.01,2013-06-02 23:21:00,
2013-06-02 19:26:00,78.2,75.3,29.93,SE,132,0.0,0.0,91,0.30,,,1.84,VWS V14.01,2013-06-02 23:26:00,
2013-06-02 19:31:00,78.2,75.4,29.93,SE,132,0.0,0.0,91,0.28,,,1.85,VWS V14.01,2013-06-02 23:31:00,
2013-06-02 19:36:00,78.3,75.4,29.93,SE,132,0.0,0.0,91,0.27,,,1.87,VWS V14.01,2013-06-02 23:36:00,
2013-06-02 19:41:00,78.3,75.4,29.93,SE,132,0.0,0.0,91,0.26,,,1.89,VWS V14.01,2013-06-02 23:41:00,
2013-06-02 19:46:00,78.2,75.4,29.92,SE,132,0.0,0.0,91,0.25,,,1.90,VWS V14.01,2013-06-02 23:46:00,
2013-06-02 19:51:00,78.3,75.4,29.92,SE,132,0.0,0.0,91,0.23,,,1.91,VWS V14.01,2013-06-02 23:51:00,
2013-06-02 19:56:00,78.2,75.3,29.92,SE,132,0.0,0.0,91,0.23,,,1.93,VWS V14.01,2013-06-02 23:56:00,
2013-06-02 20:00:00,78.3,75.4,29.93,SE,132,0.0,0.0,91,0.22,,,1.94,VWS V14.01,2013-06-03 00:00:00,
2013-06-02 20:05:00,78.3,75.3,29.93,SE,132,0.0,0.0,90,0.20,,,1.95,VWS V14.01,2013-06-03 00:05:00,
2013-06-02 20:10:00,78.2,75.2,29.94,SE,132,0.0,0.0,90,0.19,,,1.96,VWS V14.01,2013-06-03 00:10:00,
2013-06-02 20:15:00,78.2,75.2,29.95,SE,132,0.0,0.0,90,0.18,,,1.97,VWS V14.01,2013-06-03 00:15:00,
2013-06-02 20:20:00,78.2,75.2,29.95,SE,132,0.0,0.0,90,0.18,,,1.98,VWS V14.01,2013-06-03 00:20:00,
2013-06-02 20:25:00,78.1,75.0,29.95,SE,132,0.0,0.0,90,0.16,,,1.98,VWS V14.01,2013-06-03 00:25:00,
2013-06-02 20:30:00,77.9,74.4,29.95,SE,132,0.0,0.0,89,0.14,,,1.98,VWS V14.01,2013-06-03 00:30:00,
2013-06-02 20:35:00,77.8,74.4,29.95,SE,132,0.0,0.0,89,0.12,,,1.98,VWS V14.01,2013-06-03 00:35:00,
2013-06-02 20:40:00,77.7,74.4,29.95,SE,132,0.0,0.0,90,0.11,,,1.98,VWS V14.01,2013-06-03 00:40:00,
2013-06-02 20:45:00,77.5,74.2,29.94,SE,132,0.0,0.0,90,0.09,,,1.98,VWS V14.01,2013-06-03 00:45:00,
2013-06-02 20:50:00,77.5,74.3,29.95,SE,132,0.0,0.0,90,0.08,,,1.98,VWS V14.01,2013-06-03 00:50:00,
2013-06-02 20:55:00,77.5,74.4,29.95,SE,132,0.0,0.0,90,0.06,,,1.98,VWS V14.01,2013-06-03 00:55:00,
2013-06-02 21:00:00,77.5,74.3,29.95,SE,132,0.0,0.0,90,0.05,,,1.98,VWS V14.01,2013-06-03 01:00:00,
2013-06-02 21:05:00,77.3,74.3,29.95,SE,132,0.0,0.0,90,0.04,,,1.98,VWS V14.01,2013-06-03 01:05:00,
2013-06-02 21:10:00,77.0,74.1,29.95,SE,132,0.0,0.0,91,0.03,,,1.98,VWS V14.01,2013-06-03 01:10:00,
2013-06-02 21:15:00,77.0,74.1,29.95,SE,132,0.0,0.0,91,0.02,,,1.98,VWS V14.01,2013-06-03 01:15:00,
2013-06-02 21:20:00,77.1,74.2,29.95,SE,132,0.0,0.0,91,0.02,,,1.99,VWS V14.01,2013-06-03 01:20:00,
2013-06-02 21:25:00,77.1,74.2,29.95,SE,132,0.0,0.0,91,0.01,,,1.99,VWS V14.01,2013-06-03 01:25:00,
2013-06-02 21:30:00,77.1,74.3,29.96,SE,132,0.0,0.0,91,0.01,,,1.99,VWS V14.01,2013-06-03 01:30:00,
2013-06-02 21:35:00,77.1,74.4,29.96,SE,132,0.0,0.0,91,0.01,,,1.99,VWS V14.01,2013-06-03 01:35:00,
2013-06-02 21:40:00,76.9,74.2,29.96,SE,132,0.0,0.0,91,0.01,,,1.99,VWS V14.01,2013-06-03 01:40:00,
2013-06-02 21:45:00,77.0,74.3,29.96,SE,132,0.0,0.0,91,0.01,,,1.99,VWS V14.01,2013-06-03 01:45:00,
2013-06-02 21:50:00,77.0,74.3,29.96,SE,132,0.0,0.0,92,0.01,,,1.99,VWS V14.01,2013-06-03 01:50:00,
2013-06-02 21:55:00,77.0,74.3,29.97,SE,132,0.0,0.0,92,0.01,,,1.99,VWS V14.01,2013-06-03 01:55:00,
2013-06-02 22:00:00,77.1,74.4,29.97,SE,132,0.0,0.0,92,0.01,,,1.99,VWS V14.01,2013-06-03 02:00:00,
2013-06-02 22:05:00,77.1,74.5,29.97,SE,132,0.0,0.0,92,0.01,,,1.99,VWS V14.01,2013-06-03 02:05:00,
2013-06-02 22:10:00,77.1,74.5,29.97,SE,132,0.0,0.0,92,0.01,,,1.99,VWS V14.01,2013-06-03 02:10:00,
2013-06-02 22:15:00,77.1,74.5,29.97,SE,132,0.0,0.0,92,0.01,,,1.99,VWS V14.01,2013-06-03 02:15:00,
2013-06-02 22:20:00,77.1,74.5,29.97,SE,132,0.0,0.0,92,0.01,,,1.99,VWS V14.01,2013-06-03 02:20:00,
2013-06-02 22:25:00,77.1,74.5,29.98,SE,132,0.0,0.0,92,0.00,,,1.99,VWS V14.01,2013-06-03 02:25:00,
2013-06-02 22:30:00,77.2,74.6,29.98,SE,132,0.0,0.0,92,0.00,,,1.99,VWS V14.01,2013-06-03 02:30:00,
2013-06-02 22:35:00,77.2,74.6,29.98,SE,132,0.0,0.0,92,0.00,,,1.99,VWS V14.01,2013-06-03 02:35:00,
2013-06-02 22:40:00,77.1,74.5,29.98,SE,132,0.0,0.0,92,0.00,,,1.99,VWS V14.01,2013-06-03 02:40:00,
2013-06-02 22:45:00,77.0,74.4,29.99,SE,132,0.0,0.0,92,0.00,,,1.99,VWS V14.01,2013-06-03 02:45:00,
2013-06-02 22:50:00,76.9,74.4,29.98,SE,132,0.0,0.0,92,0.00,,,1.99,VWS V14.01,2013-06-03 02:50:00,
2013-06-02 22:55:00,76.9,74.4,29.98,SE,132,0.0,0.0,92,0.00,,,1.99,VWS V14.01,2013-06-03 02:55:00,
2013-06-02 23:00:00,76.8,74.3,29.98,SE,132,0.0,0.0,92,0.00,,,1.99,VWS V14.01,2013-06-03 03:00:00,
2013-06-02 23:05:00,76.7,74.2,29.98,SE,132,0.0,0.0,92,0.00,,,1.99,VWS V14.01,2013-06-03 03:05:00,
2013-06-02 23:10:00,76.8,74.3,29.98,SE,132,0.0,0.0,92,0.00,,,1.99,VWS V14.01,2013-06-03 03:10:00,
2013-06-02 23:15:00,76.7,74.1,29.98,SE,132,0.0,0.0,92,0.00,,,1.99,VWS V14.01,2013-06-03 03:15:00,
2013-06-02 23:20:00,76.7,74.1,29.98,SE,132,0.0,0.0,92,0.00,,,1.99,VWS V14.01,2013-06-03 03:20:00,
2013-06-02 23:25:00,76.7,74.1,29.97,SE,132,0.0,0.0,92,0.00,,,1.99,VWS V14.01,2013-06-03 03:25:00,
2013-06-02 23:30:00,76.5,73.9,29.97,SE,132,0.0,0.0,92,0.00,,,1.99,VWS V14.01,2013-06-03 03:30:00,
2013-06-02 23:35:00,76.5,73.9,29.97,SE,132,0.0,0.0,92,0.00,,,1.99,VWS V14.01,2013-06-03 03:35:00,
2013-06-02 23:40:00,76.4,73.8,29.97,SE,132,0.0,0.0,92,0.00,,,1.99,VWS V14.01,2013-06-03 03:40:00,
2013-06-02 23:45:00,76.4,73.8,29.97,SE,132,0.0,0.0,92,0.00,,,1.99,VWS V14.01,2013-06-03 03:45:00,
2013-06-02 23:50:00,76.3,73.7,29.96,SE,132,0.0,0.0,92,0.00,,,1.99,VWS V14.01,2013-06-03 03:50:00,
2013-06-02 23:55:00,76.2,73.6,29.96,SE,132,0.0,0.0,92,0.00,,,1.99,VWS V14.01,2013-06-03 03:55:00,